Kalamazoo, MI

12:43 PM EDT on September 19, 2017 (GMT -0400)
Kalamazoo-Battle Creek International

Weather History for KAZO - April, 2014

Change the Weather History Date:

Monday, April 21, 2014

  Actual Average Record
Temperature  
Mean Temperature 65 °F 51 °F  
Max Temperature 79 °F 62 °F 84 °F (1985)
Min Temperature 51 °F 40 °F 22 °F (2013)
Degree Days  
Heating Degree Days 0 14  
Month to date heating degree days 380 374  
Since 1 July heating degree days 6707 6031  
Cooling Degree Days 0 0  
Month to date cooling degree days 0 0  
Year to date cooling degree days 0 0  
Growing Degree Days 16 (Base 50)    
Moisture  
Dew Point 44 °F    
Average Humidity 58    
Maximum Humidity 87    
Minimum Humidity 28    
Precipitation  
Precipitation 0.07 in 0.09 in 0.81 in (1966)
Month to date precipitation 1.36 2.04  
Year to date precipitation 5.14 7.53  
Sea Level Pressure  
Sea Level Pressure 29.91 in    
Wind  
Wind Speed 9 mph (SW)    
Max Wind Speed 24 mph    
Max Gust Speed 31 mph    
Visibility 10 miles    
Events Rain    
T = Trace of Precipitation, MM = Missing Value Source: NWS Daily Summary

Daily Weather History Graph

Daily Weather History Graph

Search for Another Location

Airport or City:

Trip Planner

Search our weather history database for the weather conditions in past years. The results will help you decide how hot, cold, wet, or windy it might be!

Date:

Astronomy

Apr. 21, 2014 Rise Set
Actual Time 6:52 AM EDT 8:30 PM EDT
Civil Twilight 6:22 AM EDT 9:00 PM EDT
Nautical Twilight 5:46 AM EDT 9:36 PM EDT
Astronomical Twilight 5:08 AM EDT 10:14 PM EDT
Moon 2:01 AM EDT (4/21) 12:16 PM EDT (4/21)
Length of Visible Light 14h 37m
Length of Day
13h 38m
Waning Gibbous, 58% of the Moon is Illuminated
Apr 21
Waning Gibbous
Apr 22
Last Quarter
Apr 29
New
May 6
First Quarter
May 14
Full

Hourly Weather History & Observations

Time (EDT) Temp. Dew Point Humidity Pressure Visibility Wind Dir Wind Speed Gust Speed Precip Events Conditions
12:53 AM 54.0 °F 33.1 °F 45% 30.07 in 10.0 mi South 4.6 mph - N/A   Clear
1:53 AM 54.0 °F 34.0 °F 47% 30.06 in 10.0 mi South 4.6 mph - N/A   Clear
2:53 AM 53.1 °F 34.0 °F 48% 30.05 in 10.0 mi South 5.8 mph - N/A   Clear
3:53 AM 53.1 °F 37.9 °F 57% 30.04 in 10.0 mi South 5.8 mph - N/A   Clear
4:53 AM 54.0 °F 35.1 °F 49% 30.03 in 10.0 mi South 5.8 mph - N/A   Scattered Clouds
5:53 AM 54.0 °F 33.1 °F 45% 30.02 in 10.0 mi South 5.8 mph - N/A   Scattered Clouds
6:53 AM 54.0 °F 36.0 °F 51% 30.01 in 10.0 mi South 5.8 mph - N/A   Scattered Clouds
7:53 AM 54.0 °F 39.0 °F 57% 30.01 in 10.0 mi South 4.6 mph - N/A   Mostly Cloudy
8:53 AM 57.0 °F 37.0 °F 47% 30.00 in 10.0 mi South 5.8 mph - N/A   Clear
9:53 AM 61.0 °F 39.9 °F 46% 29.98 in 10.0 mi South 6.9 mph - N/A   Clear
10:53 AM 70.0 °F 42.1 °F 36% 29.96 in 10.0 mi SSW 8.1 mph - N/A   Clear
11:53 AM 73.9 °F 43.0 °F 33% 29.93 in 10.0 mi South 9.2 mph - N/A   Clear
12:53 PM 77.0 °F 42.1 °F 29% 29.91 in 10.0 mi SW 13.8 mph - N/A   Clear
1:53 PM 75.9 °F 43.0 °F 31% 29.88 in 10.0 mi SSW 11.5 mph - N/A   Clear
2:53 PM 77.0 °F 42.1 °F 29% 29.85 in 10.0 mi SSW 9.2 mph - N/A   Clear
3:53 PM 78.1 °F 42.1 °F 28% 29.82 in 10.0 mi SW 17.3 mph 24.2 mph N/A   Partly Cloudy
4:53 PM 73.9 °F 44.1 °F 34% 29.81 in 10.0 mi West 10.4 mph - 0.00 in   Overcast
5:53 PM 73.0 °F 45.0 °F 37% 29.80 in 10.0 mi NW 12.7 mph - N/A   Mostly Cloudy
6:53 PM 71.1 °F 46.9 °F 42% 29.80 in 10.0 mi WNW 9.2 mph - 0.00 in   Scattered Clouds
7:53 PM 63.0 °F 53.1 °F 70% 29.83 in 10.0 mi WSW 15.0 mph 25.3 mph 0.00 in Rain Light Rain
8:53 PM 60.1 °F 54.0 °F 80% 29.84 in 9.0 mi SW 11.5 mph - 0.01 in Rain Light Rain
9:53 PM 59.0 °F 55.0 °F 87% 29.82 in 10.0 mi SW 6.9 mph - 0.03 in Rain Light Rain
10:32 PM 59.0 °F 55.9 °F 90% 29.82 in 7.0 mi SW 5.8 mph - 0.02 in Rain Light Rain
10:53 PM 59.0 °F 55.9 °F 90% 29.80 in 8.0 mi WSW 9.2 mph - 0.02 in Rain Light Rain
11:13 PM 59.0 °F 55.9 °F 90% 29.79 in 9.0 mi WSW 11.5 mph - 0.01 in Rain Light Rain
11:30 PM 59.0 °F 55.9 °F 90% 29.79 in 10.0 mi WSW 10.4 mph - 0.01 in Rain Light Rain
11:53 PM 59.0 °F 55.9 °F 90% 29.78 in 8.0 mi West 10.4 mph - 0.01 in Rain Light Rain